Tracking 28794 objects as of 19-Apr-2024
HD Live streaming from Space Station
objects crossing your sky now

STARLINK-5320

Track STARLINK-5320 now!
10-day predictions
STARLINK-5320 is classified as:


NORAD ID: 55289
Int'l Code: 2023-010W
Perigee: 577.3 km
Apogee: 581.1 km
Inclination: 70.0 °
Period: 96.1 minutes
Semi major axis: 6950 km
RCS: Unknown
Launch date: January 19, 2023
Source: United States (US)
Launch site: AIR FORCE WESTERN TEST RANGE (AFWTR)
Your satellite tracking list
Your tracking list is empty




NASA's NSSDC Master Catalog

Two Line Element Set (TLE):
1 55289U 23010W   24109.96976892  .00000192  00000-0  23900-4 0  9997
2 55289  69.9991 323.5750 0002717 238.5070 121.5823 14.98332011 69954
Source of the keplerian elements: AFSPC